Location: Bourg-d�Oueil
(42.8588°N, 0.4991°E)
Time: 02:52:05
(UTC+00:00)

ATLAS CENTAUR R/B - Pass Details

Date: 16 June 2021
Orbit: 472 x 671 km, 64.6° (Epoch: 03 August)

Event Time Altitude Azimuth Distance (km) Brightness Sun altitude
Rises 21:37:42 0° 333° (NNW) 2,777 6.7 -16.2°
Reaches altitude 10° 21:40:04 10° 344° (NNW) 1,912 5.3 -16.5°
Maximum altitude 21:43:58 32° 48° (NE) 1,058 2.8 -16.8°
Enters shadow 21:46:24 19° 98° (E) 1,476 3.1 -17.1°
